[[{"header":{"parameterUnit":"m.s-1","parameterCategory":1,"la1":30.2991,"la2":30.254,"lo1":-89.0895,"lo2":-89.0444,"dy":0.0017,"dx":0.0017,"nx":28,"ny":28,"refTime":"2023-09-29T09:00:00:Z","depth":0,"parameterNumber":2,"parameterNumberName":"U-component_of_WINDS"},"data":[0,0,0,0,0,0,0,0,0,0,0,0,0,0,0,0,0,0,0,0,0,0,0,0,0,0,0,0,0,0,0,0,0,0,0,0,0,0,0,0,0,0,0,0,0,0,0,0,0,0,0,0,0,0,0,0,0,0,-3.1037,-3.1037,0,-3.1038,-3.1038,-3.1038,-3.0903,-3.0899,-3.0896,-3.0892,-3.0896,-3.0899,-3.0902,0,0,0,0,0,0,0,0,0,0,0,0,0,-3.0923,-3.0926,-3.1037,-3.1037,-3.1037,-3.1038,-3.1038,-3.1038,-3.0903,-3.0899,-3.0895,-3.0891,-3.0895,-3.0899,-3.0903,0,0,0,0,0,0,0,0,0,0,0,0,0,-3.0953,-3.0927,-3.1037,-3.097,-3.0964,-3.1038,-3.1038,-3.1038,-3.0904,-3.0899,-3.0893,-3.0888,-3.0893,-3.0898,-3.0903,-3.1042,0,0,-3.0919,-3.0921,0,0,0,0,0,0,0,0,-3.0952,-3.0958,-3.098,-3.0975,-3.0968,-3.0965,-3.0999,-3.1039,-3.0906,-3.0927,-3.0892,-3.0886,-3.0923,-3.0926,-3.0937,-3.1042,-3.1043,-3.0919,-3.0923,-3.0925,-3.0926,0,0,0,0,0,0,0,-3.095,-3.0957,-3.1037,-3.0981,-3.0973,-3.0941,-3.094,-3.1006,-3.0955,-3.0925,-3.0915,-3.0917,-3.0919,-3.0933,-3.0937,-3.1043,-3.0919,-3.0924,-3.0927,-3.0929,-3.1263,-3.1269,0,0,0,0,0,0,-3.0957,-3.0956,-3.1037,-3.1038,-3.0947,-3.0948,-3.0946,-3.0971,-3.0954,-3.0946,-3.0921,-3.091,-3.0927,-3.0931,-3.0936,-3.1099,-3.0925,-3.093,-3.0933,-3.1258,-3.1265,-3.1271,0,0,0,0,0,0,-3.0955,-3.0965,-3.1037,-3.0994,-3.1001,-3.0955,-3.0985,-3.0974,-3.0988,-3.0951,-3.0942,-3.0945,-3.0923,-3.0929,-3.1017,-3.1097,-3.0932,-3.0937,-3.1251,-3.126,-3.1268,-3.1425,0,0,0,0,0,0,-3.0952,-3.0965,-3.1017,-3.0996,-3.1004,-3.1118,-3.099,-3.0978,-3.0997,-3.0982,-3.0971,-3.0964,-3.0919,-3.101,-3.1022,-3.1101,-3.0941,-3.1243,-3.1255,-3.1265,-3.1412,-3.1438,-3.146,0,0,0,0,0,-3.0948,-3.1061,-3.102,-3.103,-3.1067,-3.1122,-3.1127,-3.1072,-3.1004,-3.1056,-3.1033,-3.0964,-3.1086,-3.102,-3.1033,-3.1114,-3.1238,-3.1252,-3.1264,-3.1402,-3.1433,-3.1459,0,0,0,0,0,0,-3.1092,-3.1057,-3.1011,-3.112,-3.1125,-3.11,-3.1163,-3.1107,-3.1132,-3.1118,-3.105,-3.1048,-3.1148,-3.1139,-3.1067,-3.1249,-3.115,-3.1167,-3.125,-3.128,-3.1303,-3.1303,-3.0945,0,0,0,0,0,-3.1137,-3.1184,-3.1151,-3.125,-3.1255,-3.121,-3.1231,-3.1189,-3.1192,-3.1194,-3.1177,-3.1183,-3.1223,-3.1251,-3.1285,-3.141,-3.1407,-3.1473,-3.1497,-3.1516,-3.1531,-3.1598,-3.1628,-3.1314,-3.1314,-3.1314,0,0,-3.1229,-3.1215,-3.1249,-3.1279,-3.1278,-3.133,-3.1212,-3.1271,-3.1309,-3.1203,-3.1285,-3.1274,-3.1276,-3.1384,-3.1431,-3.138,-3.1617,-3.1533,-3.1549,-3.1553,-3.1615,-3.1645,-3.1671,-3.1323,-3.1321,-3.132,0,0,-3.1423,-3.1418,-3.15,-3.1502,-3.1502,-3.1471,-3.1491,-3.1474,-3.1462,-3.1544,-3.1465,-3.151,-3.158,-3.1586,-3.1598,-3.1797,-3.1736,-3.181,-3.1934,-3.2001,-3.2025,-3.2047,-3.2119,-3.2146,-3.1825,-3.1826,-3.1826,0,-3.1538,-3.1612,-3.155,-3.1615,-3.1631,-3.1537,-3.1622,-3.1626,-3.1638,-3.1652,-3.1596,-3.1682,-3.1677,-3.1786,-3.1835,-3.1847,-3.187,-3.1811,-3.2026,-3.2048,-3.2067,-3.2135,-3.2163,-3.1835,-3.1834,-3.1833,-3.1832,0,-3.1754,-3.1807,-3.1874,-3.1887,-3.1911,-3.1985,-3.1937,-3.1968,-3.1925,-3.19,-3.1985,-3.1976,-3.2008,-3.2031,-3.1989,-3.2134,-3.2103,-3.2038,-3.1938,-3.2107,-3.217,-3.2196,-3.1848,-3.1845,-3.1842,-3.184,0,0,-3.2038,-3.2018,-3.2043,-3.2049,-3.2043,-3.2083,-3.2154,-3.2185,-3.2214,-3.2226,-3.2285,-3.2347,-3.2287,-3.2301,-3.2258,-3.2317,-3.2477,-3.2244,-3.2243,-3.2289,-3.2639,-3.2689,-3.272,-3.2436,-3.2441,-3.2445,-3.2639,0,-3.2227,-3.2346,-3.2294,-3.242,-3.2468,-3.238,-3.2443,-3.2447,-3.2427,-3.2466,-3.2443,-3.2489,-3.2405,-3.2414,-3.2467,-3.2446,-3.2547,-3.2431,-3.2492,-3.2495,-3.2495,-3.2753,-3.2806,-3.2989,-3.2664,-3.2668,-3.2671,0,-3.2464,-3.2485,-3.2616,-3.2602,-3.2621,-3.2677,-3.2702,-3.2741,-3.2744,-3.2725,-3.2742,-3.2687,-3.2758,-3.2658,-3.2756,-3.2679,-3.27,-3.2694,-3.27,-3.2704,-3.2594,-3.2765,-3.3047,-3.3075,-3.2709,-3.2706,-3.2703,0,-3.266,-3.2721,-3.2807,-3.2815,-3.2801,-3.2843,-3.284,-3.2838,-3.286,-3.2883,-3.2897,-3.2927,-3.2945,-3.297,-3.2926,-3.2857,-3.3031,-3.2927,-3.3018,-3.302,-3.3059,-3.3057,-3.3349,-3.3072,-3.3072,-3.3071,-3.3071,0,-3.2877,-3.296,-3.2895,-3.2949,-3.304,-3.298,-3.3073,-3.306,-3.3059,-3.311,-3.3036,-3.3085,-3.3023,-3.3067,-3.3032,-3.3119,-3.3127,-3.3115,-3.3106,-3.3123,-3.3124,-3.3136,-3.3123,-3.3079,-3.3077,-3.3076,-3.3074,0,-3.3111,-3.307,-3.3159,-3.3139,-3.3136,-3.3205,-3.3188,-3.3237,-3.3212,-3.3277,-3.3289,-3.325,-3.3298,-3.3256,-3.3302,-3.328,-3.3396,-3.3367,-3.3394,-3.3387,-3.3481,-3.3473,-3.3791,-3.3831,-3.3529,-3.3532,-3.3534,0,-3.3252,-3.3314,-3.3301,-3.3329,-3.333,-3.3377,-3.3399,-3.3343,-3.337,-3.338,-3.3429,-3.347,-3.35,-3.3581,-3.3558,-3.3593,-3.3566,-3.3675,-3.3571,-3.3586,-3.3569,-3.3566,-3.3573,-3.3696,-3.37,-3.3703,-3.3705,0,-3.3508,-3.3485,-3.352,-3.3549,-3.3578,-3.3598,-3.3613,-3.364,-3.3583,-3.3618,-3.3665,-3.3689,-3.3736,-3.3779,-3.3807,-3.3805,-3.3747,-3.3738,-3.3761,-3.378,-3.3793,-3.3789,-3.3453,-3.3731,-3.3728,-3.3727,-3.3725,-3.3724,-3.37,-3.3752,-3.3752,-3.3794,-3.3799,-3.3814,-3.386,-3.3841,-3.388,-3.3913,-3.3878,-3.3937,-3.3941,-3.3973,-3.3978,-3.4024,-3.3978,-3.4012,-3.4021,-3.403,-3.4044,-3.3786,-3.4029,-3.4028,-3.4027,-3.4026,-3.4026,0,-3.3953,-3.3949,-3.3988,-3.4011,-3.4044,-3.3986,-3.3999,-3.4032,-3.4084,-3.4092,-3.4124,-3.418,-3.4221,-3.4202,-3.4239,-3.428,-3.4254,-3.4291,-3.4288,-3.4289,-3.4082,-3.4059,-3.4312,-3.4312,-3.4312,-3.4311,-3.4311,-3.4311,-3.4089,-3.4174,-3.4152,-3.4239,-3.4234,-3.429,-3.4304,-3.4318,-3.4325,-3.439,-3.4424,-3.4411,-3.4409,-3.4446,-3.4482,-3.4475,-3.4493,-3.454,-3.4525,-3.4331,-3.4303,-3.4277,-3.4254,-3.4544,-3.4545,-3.4728,-3.4729,-3.4731]},{"header":{"parameterUnit":"m.s-1","parameterCategory":1,"la1":30.2991,"la2":30.254,"lo1":-89.0895,"lo2":-89.0444,"dy":0.0017,"dx":0.0017,"nx":28,"ny":28,"refTime":"2023-09-29T09:00:00:Z","depth":0,"parameterNumber":3,"parameterNumberName":"V-component_of_WINDS"},"data":[0,0,0,0,0,0,0,0,0,0,0,0,0,0,0,0,0,0,0,0,0,0,0,0,0,0,0,0,0,0,0,0,0,0,0,0,0,0,0,0,0,0,0,0,0,0,0,0,0,0,0,0,0,0,0,0,0,0,2.0463,2.0462,0,2.0407,2.0406,2.0406,2.0375,2.0375,2.0375,2.0375,2.031,2.0308,2.0307,0,0,0,0,0,0,0,0,0,0,0,0,0,2.0537,2.0536,2.0463,2.0462,2.0462,2.0407,2.0406,2.0406,2.0375,2.0375,2.0375,2.0375,2.031,2.0309,2.0306,0,0,0,0,0,0,0,0,0,0,0,0,0,2.0496,2.0536,2.0463,2.044,2.0437,2.0407,2.0406,2.0405,2.0375,2.0375,2.0375,2.0375,2.0311,2.0309,2.0306,2.0292,0,0,2.0298,2.0297,0,0,0,0,0,0,0,0,2.0498,2.0493,2.0444,2.0442,2.0439,2.0398,2.0409,2.0367,2.0375,2.0399,2.0375,2.0375,2.0339,2.0334,2.0323,2.0289,2.0286,2.0298,2.0297,2.0296,2.0295,0,0,0,0,0,0,0,2.0501,2.0495,2.0441,2.0443,2.044,2.0431,2.0425,2.0401,2.037,2.0397,2.0394,2.0388,2.0337,2.0326,2.0322,2.0286,2.0298,2.0296,2.0295,2.0294,2.0238,2.0238,0,0,0,0,0,0,2.0508,2.0498,2.0442,2.0439,2.0469,2.0429,2.0423,2.0411,2.037,2.0364,2.0389,2.0387,2.033,2.0325,2.0319,2.0301,2.0296,2.0293,2.0292,2.0238,2.0238,2.0238,0,0,0,0,0,0,2.051,2.0504,2.0445,2.0468,2.046,2.0428,2.0416,2.041,2.0399,2.0364,2.0358,2.0383,2.033,2.0323,2.03,2.0298,2.0292,2.029,2.0238,2.0238,2.0238,2.0264,0,0,0,0,0,0,2.0512,2.0505,2.05,2.0468,2.0458,2.0428,2.0415,2.0409,2.0396,2.0393,2.0357,2.0351,2.0329,2.0304,2.0298,2.0295,2.0288,2.0238,2.0238,2.0238,2.0263,2.0265,2.0267,0,0,0,0,0,2.0515,2.0507,2.05,2.0494,2.0453,2.0428,2.0422,2.04,2.0396,2.039,2.0368,2.0352,2.03,2.0302,2.0294,2.0291,2.0238,2.0238,2.0238,2.0262,2.0265,2.0266,0,0,0,0,0,0,2.0537,2.0503,2.0494,2.0476,2.0456,2.0423,2.0415,2.0403,2.0381,2.0379,2.035,2.0342,2.0322,2.0304,2.0307,2.0276,2.0267,2.0266,2.0288,2.029,2.0292,2.0296,2.0286,0,0,0,0,0,2.054,2.0525,2.0495,2.0482,2.0473,2.0446,2.0435,2.042,2.0396,2.0386,2.0362,2.0338,2.0317,2.0302,2.028,2.0261,2.0252,2.0255,2.0257,2.0258,2.0257,2.0246,2.0247,2.0239,2.0239,2.0239,0,0,2.0545,2.0525,2.0517,2.0486,2.0469,2.0452,2.0439,2.0421,2.0409,2.0383,2.0361,2.0343,2.0314,2.0293,2.0283,2.0277,2.0258,2.0258,2.026,2.0257,2.0246,2.0247,2.0248,2.0239,2.0239,2.0239,0,0,2.0547,2.0531,2.0518,2.0502,2.0477,2.046,2.0457,2.0427,2.0415,2.0393,2.0374,2.0357,2.032,2.0301,2.0286,2.0284,2.0269,2.0278,2.0286,2.0275,2.0276,2.0276,2.0275,2.0275,2.0277,2.0277,2.0277,0,2.0556,2.0533,2.0513,2.0498,2.0485,2.0465,2.0452,2.0436,2.0404,2.0394,2.039,2.0345,2.0324,2.0299,2.0299,2.0288,2.0283,2.0281,2.0278,2.0278,2.0278,2.0277,2.0276,2.0278,2.0278,2.0278,2.0278,0,2.0545,2.0529,2.0522,2.0496,2.0482,2.0468,2.0445,2.0433,2.042,2.0403,2.0381,2.0356,2.0329,2.0323,2.0308,2.0296,2.0294,2.0284,2.0275,2.0281,2.0279,2.0278,2.028,2.0279,2.0279,2.0279,0,0,2.0556,2.0521,2.0519,2.0507,2.0479,2.0465,2.0451,2.0428,2.0418,2.0397,2.0383,2.0354,2.0346,2.033,2.0313,2.0305,2.0305,2.0296,2.0295,2.0298,2.029,2.0296,2.0296,2.0296,2.0295,2.0295,2.0292,0,2.0553,2.0528,2.0511,2.0491,2.0476,2.0459,2.0445,2.0426,2.0411,2.0394,2.0376,2.0356,2.0347,2.0337,2.0328,2.0307,2.0302,2.0307,2.028,2.0279,2.0287,2.0295,2.0302,2.03,2.0291,2.0291,2.0291,0,2.0545,2.0529,2.0509,2.0485,2.0478,2.0466,2.0445,2.043,2.0408,2.0397,2.0381,2.0365,2.0347,2.0342,2.0316,2.032,2.0308,2.0296,2.0296,2.0291,2.0284,2.029,2.0298,2.0298,2.029,2.029,2.029,0,2.0555,2.0527,2.0512,2.0503,2.0474,2.0467,2.0454,2.0432,2.042,2.04,2.0392,2.037,2.0357,2.034,2.0318,2.0316,2.0295,2.0287,2.0284,2.0285,2.0279,2.0279,2.0285,2.0274,2.0274,2.0274,2.0274,0,2.0553,2.0541,2.0516,2.0507,2.0493,2.0474,2.0461,2.0446,2.0427,2.0414,2.0396,2.0383,2.0356,2.034,2.0322,2.0304,2.0298,2.0288,2.0283,2.0289,2.029,2.028,2.0279,2.0274,2.0274,2.0274,2.0274,0,2.056,2.0543,2.0526,2.0502,2.0495,2.0486,2.0465,2.0454,2.0439,2.0422,2.0417,2.0392,2.0372,2.035,2.0321,2.0309,2.0292,2.0286,2.03,2.0297,2.0295,2.0296,2.0293,2.0292,2.0283,2.0283,2.0283,0,2.0559,2.055,2.0526,2.0518,2.0506,2.0492,2.048,2.0461,2.045,2.0426,2.0418,2.0397,2.038,2.0348,2.0326,2.0305,2.0297,2.0298,2.0293,2.03,2.0296,2.0297,2.0295,2.0298,2.0299,2.0299,2.0299,0,2.0559,2.0552,2.0538,2.0521,2.0509,2.0494,2.0478,2.0471,2.0449,2.0437,2.0418,2.0405,2.0378,2.0357,2.0333,2.0318,2.0304,2.0301,2.0299,2.0304,2.0313,2.0308,2.0303,2.0301,2.03,2.03,2.03,2.03,2.0562,2.0554,2.0537,2.0521,2.0508,2.0495,2.0484,2.0469,2.0454,2.0432,2.0422,2.0403,2.0382,2.0349,2.0335,2.0319,2.0314,2.0311,2.031,2.031,2.0311,2.0317,2.0314,2.0314,2.0314,2.0314,2.0314,0,2.0561,2.055,2.0536,2.0516,2.0504,2.0497,2.0479,2.0469,2.0454,2.0437,2.0421,2.0399,2.038,2.0358,2.0337,2.0329,2.0322,2.0323,2.0323,2.032,2.0317,2.032,2.0329,2.0329,2.0329,2.0329,2.0329,2.0329,2.0559,2.0545,2.0536,2.0516,2.0504,2.0487,2.0478,2.0465,2.0452,2.043,2.0415,2.0402,2.0383,2.0361,2.0342,2.0336,2.0329,2.0332,2.0324,2.0321,2.032,2.0319,2.0322,2.0331,2.0331,2.0328,2.0328,2.0328]}]]